����������;��������(kWh)
2019-07-29 00:00;80,7
2019-07-29 00:15;82,95
2019-07-29 00:30;82,45
2019-07-29 00:45;82
2019-07-29 01:00;81,45
2019-07-29 01:15;84,7
2019-07-29 01:30;81,6
2019-07-29 01:45;80,55
2019-07-29 02:00;81,45
2019-07-29 02:15;82,2
2019-07-29 02:30;81,9
2019-07-29 02:45;80,8
2019-07-29 03:00;83,15
2019-07-29 03:15;79,65
2019-07-29 03:30;83,85
2019-07-29 03:45;83,75
2019-07-29 04:00;82,35
2019-07-29 04:15;81,5
2019-07-29 04:30;84,4
2019-07-29 04:45;82,2
2019-07-29 05:00;83,15
2019-07-29 05:15;83,65
2019-07-29 05:30;84,35
2019-07-29 05:45;85,2
2019-07-29 06:00;80,95
2019-07-29 06:15;79,55
2019-07-29 06:30;78,3
2019-07-29 06:45;76,55
2019-07-29 07:00;75,8
2019-07-29 07:15;81,1
2019-07-29 07:30;137,2
2019-07-29 07:45;118,1
2019-07-29 08:00;105,7
2019-07-29 08:15;108,7
2019-07-29 08:30;123,5
2019-07-29 08:45;141,45
2019-07-29 09:00;147
2019-07-29 09:15;152,5
2019-07-29 09:30;161,4
2019-07-29 09:45;175,15
2019-07-29 10:00;173,2
2019-07-29 10:15;187,05
2019-07-29 10:30;189,95
2019-07-29 10:45;205,95
2019-07-29 11:00;249,25
2019-07-29 11:15;226,7
2019-07-29 11:30;209,7
2019-07-29 11:45;226,9
2019-07-29 12:00;227,5
2019-07-29 12:15;237,1
2019-07-29 12:30;240,15
2019-07-29 12:45;228,95
2019-07-29 13:00;240,65
2019-07-29 13:15;230,15
2019-07-29 13:30;235,8
2019-07-29 13:45;232,6
2019-07-29 14:00;218,1
2019-07-29 14:15;225,8
2019-07-29 14:30;210,6
2019-07-29 14:45;222,2
2019-07-29 15:00;213,8
2019-07-29 15:15;189,3
2019-07-29 15:30;193,15
2019-07-29 15:45;180,4
2019-07-29 16:00;169,85
2019-07-29 16:15;178,7
2019-07-29 16:30;145,4
2019-07-29 16:45;157,35
2019-07-29 17:00;133,6
2019-07-29 17:15;146,4
2019-07-29 17:30;136,9
2019-07-29 17:45;129,45
2019-07-29 18:00;130,7
2019-07-29 18:15;125,3
2019-07-29 18:30;127,65
2019-07-29 18:45;124,3
2019-07-29 19:00;121,65
2019-07-29 19:15;123,15
2019-07-29 19:30;119,55
2019-07-29 19:45;120,95
2019-07-29 20:00;115,15
2019-07-29 20:15;115,6
2019-07-29 20:30;115,65
2019-07-29 20:45;114,55
2019-07-29 21:00;114,9
2019-07-29 21:15;114,4
2019-07-29 21:30;113,1
2019-07-29 21:45;111,15
2019-07-29 22:00;105,2
2019-07-29 22:15;97,85
2019-07-29 22:30;94,85
2019-07-29 22:45;92,6
2019-07-29 23:00;99,6
2019-07-29 23:15;92,75
2019-07-29 23:30;93,65
2019-07-29 23:45;102,05
2019-07-30 00:00;85,8
2019-07-30 00:15;88,8
2019-07-30 00:30;86,8
2019-07-30 00:45;84,6
2019-07-30 01:00;88,05
2019-07-30 01:15;85,65
2019-07-30 01:30;86,9
2019-07-30 01:45;83,3
2019-07-30 02:00;84,05
2019-07-30 02:15;85,15
2019-07-30 02:30;84,45
2019-07-30 02:45;86,15
2019-07-30 03:00;83,55
2019-07-30 03:15;83,6
2019-07-30 03:30;86
2019-07-30 03:45;85,05
2019-07-30 04:00;84,8
2019-07-30 04:15;86,3
2019-07-30 04:30;87,1
2019-07-30 04:45;87,1
2019-07-30 05:00;85,15
2019-07-30 05:15;83,75
2019-07-30 05:30;85,5
2019-07-30 05:45;85,35
2019-07-30 06:00;82,95
2019-07-30 06:15;83,3
2019-07-30 06:30;82,8
2019-07-30 06:45;79,1
2019-07-30 07:00;79,85
2019-07-30 07:15;81,05
2019-07-30 07:30;139,3
2019-07-30 07:45;145,25
2019-07-30 08:00;109,2
2019-07-30 08:15;109,05
2019-07-30 08:30;119,9
2019-07-30 08:45;143,25
2019-07-30 09:00;147,9
2019-07-30 09:15;138,1
2019-07-30 09:30;165,75
2019-07-30 09:45;166
2019-07-30 10:00;178,8
2019-07-30 10:15;182,7
2019-07-30 10:30;183,3
2019-07-30 10:45;207,8
2019-07-30 11:00;211,3
2019-07-30 11:15;204,65
2019-07-30 11:30;210,95
2019-07-30 11:45;202,95
2019-07-30 12:00;223,65
2019-07-30 12:15;225,05
2019-07-30 12:30;219,25
2019-07-30 12:45;209,15
2019-07-30 13:00;209,55
2019-07-30 13:15;213,3
2019-07-30 13:30;201,6
2019-07-30 13:45;215,5
2019-07-30 14:00;204,85
2019-07-30 14:15;198,2
2019-07-30 14:30;201,3
2019-07-30 14:45;189,2
2019-07-30 15:00;199,95
2019-07-30 15:15;173,35
2019-07-30 15:30;184,85
2019-07-30 15:45;175,45
2019-07-30 16:00;152,55
2019-07-30 16:15;152,8
2019-07-30 16:30;141,4
2019-07-30 16:45;150,95
2019-07-30 17:00;129,4
2019-07-30 17:15;135,4
2019-07-30 17:30;121,9
2019-07-30 17:45;117,55
2019-07-30 18:00;116,45
2019-07-30 18:15;116,7
2019-07-30 18:30;115,95
2019-07-30 18:45;114,2
2019-07-30 19:00;114,25
2019-07-30 19:15;112,9
2019-07-30 19:30;112,45
2019-07-30 19:45;114,45
2019-07-30 20:00;111,8
2019-07-30 20:15;109,95
2019-07-30 20:30;109,8
2019-07-30 20:45;108,3
2019-07-30 21:00;112,65
2019-07-30 21:15;109,7
2019-07-30 21:30;110,4
2019-07-30 21:45;108,75
2019-07-30 22:00;104,15
2019-07-30 22:15;103,6
2019-07-30 22:30;103,65
2019-07-30 22:45;105
2019-07-30 23:00;99,3
2019-07-30 23:15;92,2
2019-07-30 23:30;95,2
2019-07-30 23:45;99,4
2019-07-31 00:00;86,1
2019-07-31 00:15;88,75
2019-07-31 00:30;89,25
2019-07-31 00:45;88,45
2019-07-31 01:00;89,05
2019-07-31 01:15;88,4
2019-07-31 01:30;87,75
2019-07-31 01:45;88,9
2019-07-31 02:00;89,85
2019-07-31 02:15;89,05
2019-07-31 02:30;87,4
2019-07-31 02:45;89,5
2019-07-31 03:00;88,6
2019-07-31 03:15;88
2019-07-31 03:30;89,95
2019-07-31 03:45;89,75
2019-07-31 04:00;88,15
2019-07-31 04:15;86,1
2019-07-31 04:30;85,1
2019-07-31 04:45;84,6
2019-07-31 05:00;83,25
2019-07-31 05:15;84,4
2019-07-31 05:30;83,8
2019-07-31 05:45;84,2
2019-07-31 06:00;82,5
2019-07-31 06:15;81,25
2019-07-31 06:30;77,9
2019-07-31 06:45;77,7
2019-07-31 07:00;78,05
2019-07-31 07:15;80,55
2019-07-31 07:30;137,5
2019-07-31 07:45;143,8
2019-07-31 08:00;103,8
2019-07-31 08:15;113,9
2019-07-31 08:30;115,65
2019-07-31 08:45;138,7
2019-07-31 09:00;144,1
2019-07-31 09:15;152
2019-07-31 09:30;165,25
2019-07-31 09:45;161,55
2019-07-31 10:00;183,65
2019-07-31 10:15;186,5
2019-07-31 10:30;194,3
2019-07-31 10:45;203,1
2019-07-31 11:00;207,85
2019-07-31 11:15;216,05
2019-07-31 11:30;211,7
2019-07-31 11:45;216,15
2019-07-31 12:00;226,15
2019-07-31 12:15;231,9
2019-07-31 12:30;225,1
2019-07-31 12:45;212,6
2019-07-31 13:00;215,3
2019-07-31 13:15;211,2
2019-07-31 13:30;210,2
2019-07-31 13:45;209,45
2019-07-31 14:00;219,3
2019-07-31 14:15;223,55
2019-07-31 14:30;195,8
2019-07-31 14:45;206,9
2019-07-31 15:00;197,7
2019-07-31 15:15;190,65
2019-07-31 15:30;189,7
2019-07-31 15:45;176,9
2019-07-31 16:00;169,25
2019-07-31 16:15;159,2
2019-07-31 16:30;155,65
2019-07-31 16:45;156,15
2019-07-31 17:00;144,95
2019-07-31 17:15;141,05
2019-07-31 17:30;138,6
2019-07-31 17:45;118,15
2019-07-31 18:00;117,4
2019-07-31 18:15;117,55
2019-07-31 18:30;115,75
2019-07-31 18:45;111
2019-07-31 19:00;114,1
2019-07-31 19:15;113,9
2019-07-31 19:30;113,65
2019-07-31 19:45;116,4
2019-07-31 20:00;101,2
2019-07-31 20:15;102,2
2019-07-31 20:30;99,85
2019-07-31 20:45;99,7
2019-07-31 21:00;100,15
2019-07-31 21:15;101,6
2019-07-31 21:30;99,3
2019-07-31 21:45;100,45
2019-07-31 22:00;97,15
2019-07-31 22:15;97
2019-07-31 22:30;93,3
2019-07-31 22:45;91,6
2019-07-31 23:00;98,2
2019-07-31 23:15;93,55
2019-07-31 23:30;95,6
2019-07-31 23:45;101,35
2019-08-01 00:00;87,35
2019-08-01 00:15;87,45
2019-08-01 00:30;87,85
2019-08-01 00:45;86,9
2019-08-01 01:00;85,95
2019-08-01 01:15;87,75
2019-08-01 01:30;84,35
2019-08-01 01:45;85,95
2019-08-01 02:00;86,6
2019-08-01 02:15;84,6
2019-08-01 02:30;84,3
2019-08-01 02:45;85,4
2019-08-01 03:00;84,55
2019-08-01 03:15;84,8
2019-08-01 03:30;86,25
2019-08-01 03:45;87,1
2019-08-01 04:00;87
2019-08-01 04:15;87,15
2019-08-01 04:30;89,3
2019-08-01 04:45;85,7
2019-08-01 05:00;86,1
2019-08-01 05:15;87,25
2019-08-01 05:30;86,2
2019-08-01 05:45;86
2019-08-01 06:00;87,35
2019-08-01 06:15;82,3
2019-08-01 06:30;82,25
2019-08-01 06:45;80,65
2019-08-01 07:00;79,05
2019-08-01 07:15;82,75
2019-08-01 07:30;150,4
2019-08-01 07:45;165,55
2019-08-01 08:00;155,45
2019-08-01 08:15;121,35
2019-08-01 08:30;142,65
2019-08-01 08:45;132,15
2019-08-01 09:00;160,95
2019-08-01 09:15;159,9
2019-08-01 09:30;173,85
2019-08-01 09:45;178,75
2019-08-01 10:00;181,75
2019-08-01 10:15;195,65
2019-08-01 10:30;186,6
2019-08-01 10:45;205,45
2019-08-01 11:00;204,85
2019-08-01 11:15;200,05
2019-08-01 11:30;209,3
2019-08-01 11:45;199,8
2019-08-01 12:00;215,05
2019-08-01 12:15;213,9
2019-08-01 12:30;204,5
2019-08-01 12:45;218,2
2019-08-01 13:00;207,8
2019-08-01 13:15;210,7
2019-08-01 13:30;212,75
2019-08-01 13:45;201,95
2019-08-01 14:00;216,65
2019-08-01 14:15;193,25
2019-08-01 14:30;207,45
2019-08-01 14:45;192,2
2019-08-01 15:00;194,25
2019-08-01 15:15;184,4
2019-08-01 15:30;173,9
2019-08-01 15:45;172,45
2019-08-01 16:00;160,95
2019-08-01 16:15;163,3
2019-08-01 16:30;152,9
2019-08-01 16:45;148,8
2019-08-01 17:00;152,2
2019-08-01 17:15;129
2019-08-01 17:30;140,35
2019-08-01 17:45;124,95
2019-08-01 18:00;125,6
2019-08-01 18:15;122,75
2019-08-01 18:30;124,25
2019-08-01 18:45;123,8
2019-08-01 19:00;122,7
2019-08-01 19:15;123
2019-08-01 19:30;122,85
2019-08-01 19:45;120,5
2019-08-01 20:00;115,8
2019-08-01 20:15;116,8
2019-08-01 20:30;102,15
2019-08-01 20:45;103,35
2019-08-01 21:00;103,95
2019-08-01 21:15;104,6
2019-08-01 21:30;101,3
2019-08-01 21:45;100,8
2019-08-01 22:00;95,65
2019-08-01 22:15;96,95
2019-08-01 22:30;96,5
2019-08-01 22:45;94,85
2019-08-01 23:00;102,95
2019-08-01 23:15;96,5
2019-08-01 23:30;101,2
2019-08-01 23:45;102,8
2019-08-02 00:00;90,15
2019-08-02 00:15;90,45
2019-08-02 00:30;87,4
2019-08-02 00:45;88,35
2019-08-02 01:00;87,95
2019-08-02 01:15;89,7
2019-08-02 01:30;87,75
2019-08-02 01:45;88,75
2019-08-02 02:00;86,45
2019-08-02 02:15;87,7
2019-08-02 02:30;87,4
2019-08-02 02:45;86
2019-08-02 03:00;90,35
2019-08-02 03:15;87,15
2019-08-02 03:30;91,15
2019-08-02 03:45;89,2
2019-08-02 04:00;89,1
2019-08-02 04:15;89,05
2019-08-02 04:30;88,95
2019-08-02 04:45;88,3
2019-08-02 05:00;90,4
2019-08-02 05:15;88,25
2019-08-02 05:30;89,35
2019-08-02 05:45;88,45
2019-08-02 06:00;85,65
2019-08-02 06:15;85,8
2019-08-02 06:30;81,7
2019-08-02 06:45;81,3
2019-08-02 07:00;82,9
2019-08-02 07:15;89,05
2019-08-02 07:30;157,95
2019-08-02 07:45;161,85
2019-08-02 08:00;122,5
2019-08-02 08:15;119
2019-08-02 08:30;125,7
2019-08-02 08:45;146,1
2019-08-02 09:00;147,4
2019-08-02 09:15;169,05
2019-08-02 09:30;181,1
2019-08-02 09:45;190,5
2019-08-02 10:00;189,7
2019-08-02 10:15;184,9
2019-08-02 10:30;189,8
2019-08-02 10:45;196,55
2019-08-02 11:00;185,55
2019-08-02 11:15;204,7
2019-08-02 11:30;203,4
2019-08-02 11:45;207,35
2019-08-02 12:00;216,5
2019-08-02 12:15;199,6
2019-08-02 12:30;223,95
2019-08-02 12:45;219,75
2019-08-02 13:00;219,6
2019-08-02 13:15;207,35
2019-08-02 13:30;217,5
2019-08-02 13:45;195,7
2019-08-02 14:00;206,1
2019-08-02 14:15;194,65
2019-08-02 14:30;198,9
2019-08-02 14:45;191,5
2019-08-02 15:00;190,45
2019-08-02 15:15;187,85
2019-08-02 15:30;174,65
2019-08-02 15:45;173,2
2019-08-02 16:00;164,85
2019-08-02 16:15;151,95
2019-08-02 16:30;145,45
2019-08-02 16:45;145,85
2019-08-02 17:00;139,4
2019-08-02 17:15;119,85
2019-08-02 17:30;120,95
2019-08-02 17:45;112,1
2019-08-02 18:00;108,15
2019-08-02 18:15;110,7
2019-08-02 18:30;108,45
2019-08-02 18:45;104,55
2019-08-02 19:00;105,95
2019-08-02 19:15;107,1
2019-08-02 19:30;104,1
2019-08-02 19:45;106,3
2019-08-02 20:00;102,65
2019-08-02 20:15;103,7
2019-08-02 20:30;104,85
2019-08-02 20:45;102,85
2019-08-02 21:00;105,85
2019-08-02 21:15;105,8
2019-08-02 21:30;107,6
2019-08-02 21:45;108,5
2019-08-02 22:00;104,45
2019-08-02 22:15;100,8
2019-08-02 22:30;103,4
2019-08-02 22:45;100,85
2019-08-02 23:00;107
2019-08-02 23:15;105,1
2019-08-02 23:30;106,25
2019-08-02 23:45;109
2019-08-03 00:00;94,6
2019-08-03 00:15;93,35
2019-08-03 00:30;81,6
2019-08-03 00:45;84,25
2019-08-03 01:00;81,9
2019-08-03 01:15;80,8
2019-08-03 01:30;81,75
2019-08-03 01:45;84
2019-08-03 02:00;82,35
2019-08-03 02:15;81,65
2019-08-03 02:30;81,6
2019-08-03 02:45;81,6
2019-08-03 03:00;80,65
2019-08-03 03:15;82,35
2019-08-03 03:30;83,2
2019-08-03 03:45;83,7
2019-08-03 04:00;85
2019-08-03 04:15;84,7
2019-08-03 04:30;83,35
2019-08-03 04:45;83,35
2019-08-03 05:00;82,05
2019-08-03 05:15;82,95
2019-08-03 05:30;83,8
2019-08-03 05:45;82,25
2019-08-03 06:00;84,1
2019-08-03 06:15;81,15
2019-08-03 06:30;79,9
2019-08-03 06:45;76,8
2019-08-03 07:00;76,55
2019-08-03 07:15;73,7
2019-08-03 07:30;74,85
2019-08-03 07:45;76
2019-08-03 08:00;73,95
2019-08-03 08:15;73,7
2019-08-03 08:30;75,6
2019-08-03 08:45;76,25
2019-08-03 09:00;78,35
2019-08-03 09:15;79,75
2019-08-03 09:30;80,1
2019-08-03 09:45;79,05
2019-08-03 10:00;81,85
2019-08-03 10:15;61,7
2019-08-03 10:30;79,7
2019-08-03 10:45;76,5
2019-08-03 11:00;79,25
2019-08-03 11:15;79,45
2019-08-03 11:30;76,95
2019-08-03 11:45;76,25
2019-08-03 12:00;77,95
2019-08-03 12:15;78
2019-08-03 12:30;78,7
2019-08-03 12:45;73,25
2019-08-03 13:00;73,05
2019-08-03 13:15;73,75
2019-08-03 13:30;72,75
2019-08-03 13:45;76,8
2019-08-03 14:00;72,15
2019-08-03 14:15;74,85
2019-08-03 14:30;71,05
2019-08-03 14:45;72,35
2019-08-03 15:00;75,55
2019-08-03 15:15;73,7
2019-08-03 15:30;74,6
2019-08-03 15:45;72,8
2019-08-03 16:00;75,2
2019-08-03 16:15;72,9
2019-08-03 16:30;72,25
2019-08-03 16:45;73,1
2019-08-03 17:00;70,95
2019-08-03 17:15;72,5
2019-08-03 17:30;70,1
2019-08-03 17:45;73,4
2019-08-03 18:00;74,6
2019-08-03 18:15;72,95
2019-08-03 18:30;75,7
2019-08-03 18:45;74
2019-08-03 19:00;74,35
2019-08-03 19:15;77,25
2019-08-03 19:30;75,8
2019-08-03 19:45;75,9
2019-08-03 20:00;76,15
2019-08-03 20:15;77,35
2019-08-03 20:30;77,3
2019-08-03 20:45;79,35
2019-08-03 21:00;80,65
2019-08-03 21:15;81,65
2019-08-03 21:30;78,25
2019-08-03 21:45;78,35
2019-08-03 22:00;78,5
2019-08-03 22:15;75,6
2019-08-03 22:30;77,8
2019-08-03 22:45;77,2
2019-08-03 23:00;82,45
2019-08-03 23:15;80,6
2019-08-03 23:30;83,3
2019-08-03 23:45;90,35
2019-08-04 00:00;79,45
2019-08-04 00:15;75,4
2019-08-04 00:30;75,95
2019-08-04 00:45;76,55
2019-08-04 01:00;76,5
2019-08-04 01:15;74,55
2019-08-04 01:30;74,65
2019-08-04 01:45;74,9
2019-08-04 02:00;75,9
2019-08-04 02:15;73,6
2019-08-04 02:30;74,75
2019-08-04 02:45;74,45
2019-08-04 03:00;74,05
2019-08-04 03:15;75,85
2019-08-04 03:30;76,6
2019-08-04 03:45;75,55
2019-08-04 04:00;76,45
2019-08-04 04:15;76,6
2019-08-04 04:30;75,35
2019-08-04 04:45;76,8
2019-08-04 05:00;75,65
2019-08-04 05:15;76,35
2019-08-04 05:30;77,3
2019-08-04 05:45;74
2019-08-04 06:00;73,25
2019-08-04 06:15;72,9
2019-08-04 06:30;70,15
2019-08-04 06:45;69,15
2019-08-04 07:00;68,3
2019-08-04 07:15;66,95
2019-08-04 07:30;68,75
2019-08-04 07:45;68,6
2019-08-04 08:00;66,5
2019-08-04 08:15;67,95
2019-08-04 08:30;67,7
2019-08-04 08:45;68,7
2019-08-04 09:00;68,7
2019-08-04 09:15;68,8
2019-08-04 09:30;68,8
2019-08-04 09:45;71,5
2019-08-04 10:00;67,65
2019-08-04 10:15;68,6
2019-08-04 10:30;69,95
2019-08-04 10:45;67,75
2019-08-04 11:00;73,95
2019-08-04 11:15;72
2019-08-04 11:30;73,75
2019-08-04 11:45;73
2019-08-04 12:00;73,55
2019-08-04 12:15;73,35
2019-08-04 12:30;73,9
2019-08-04 12:45;71,75
2019-08-04 13:00;71,45
2019-08-04 13:15;73,55
2019-08-04 13:30;72,4
2019-08-04 13:45;71,7
2019-08-04 14:00;73,25
2019-08-04 14:15;72,55
2019-08-04 14:30;75,05
2019-08-04 14:45;73,55
2019-08-04 15:00;73,6
2019-08-04 15:15;74,2
2019-08-04 15:30;74,35
2019-08-04 15:45;73,95
2019-08-04 16:00;75,15
2019-08-04 16:15;75,95
2019-08-04 16:30;73,55
2019-08-04 16:45;72,6
2019-08-04 17:00;75,35
2019-08-04 17:15;73,9
2019-08-04 17:30;73
2019-08-04 17:45;75,1
2019-08-04 18:00;73,75
2019-08-04 18:15;73,35
2019-08-04 18:30;75,25
2019-08-04 18:45;72,75
2019-08-04 19:00;73,8
2019-08-04 19:15;77,55
2019-08-04 19:30;76,55
2019-08-04 19:45;77,55
2019-08-04 20:00;78,9
2019-08-04 20:15;76,25
2019-08-04 20:30;78,2
2019-08-04 20:45;79,9
2019-08-04 21:00;81,4
2019-08-04 21:15;82,7
2019-08-04 21:30;79,45
2019-08-04 21:45;79,05
2019-08-04 22:00;78,3
2019-08-04 22:15;76,35
2019-08-04 22:30;75,45
2019-08-04 22:45;77,4
2019-08-04 23:00;82,7
2019-08-04 23:15;77,8
2019-08-04 23:30;82,25
2019-08-04 23:45;87,25

